Location: *
(50.3440°N, 18.6237°E)
Time: 14:03:19
(UTC+00:00)

USA 267 - Pass Details

Date: 30 November 2020
Orbit: 1100 x 1107 km, 123.0° (Epoch: 18 January)

Event Time Altitude Azimuth Distance (km) Brightness Sun altitude
Exits shadow 16:31:01 21° 94° (E) 2,258 4.3 -16.1°
Maximum altitude 16:35:33 64° 19° (NNE) 1,215 3.3 -16.8°
Drops below altitude 10° 16:42:00 10° 300° (WNW) 2,970 6.2 -17.8°
Sets 16:44:31 0° 298° (WNW) 3,930 7.0 -18.2°
